Home   Weather   Amsterdam Island   Past weeks

Flag for French Southern Territories Past Weather in Amsterdam Island, French Southern Territories — Yesterday and Last 2 Weeks

Now
43 °F

Quite cool.


Feels Like: 37 °F
Forecast: 59 / 63 °F
Wind: 12 mph from North

Location: Port-Aux-Francais Iles Kerguelen

Current Time: Dec 4, 2016 at 4:57:04 am

Latest Report: Dec 4, 2016 at 4:00 am


Visibility: N/A

Pressure: 29.21 "Hg

Humidity: 80%

Dew Point: 37 °F

Location of Amsterdam IslandLocation

Past Weather in Amsterdam Island — Graph

°F

Amsterdam Island Temperature Yesterday

Maximum temperature yesterday: 50 °F (at 2:00 pm)
Minimum temperature yesterday: 39 °F (at 5:00 am)
Average temperature yesterday: 44 °F

High & Low Weather Summary for the Past Weeks

 TemperatureHumidityPressure
High57 °F (Dec 1, 2:00 pm)96% (Nov 19, 6:00 am)29.97 "Hg (Nov 19, 6:00 am)
Low33 °F (Nov 24, 5:00 am)39% (Nov 24, 1:00 pm)28.76 "Hg (Nov 19, 11:00 pm)
Average44 °F71%29.42 "Hg
* Reported Nov 19 3:00 am — Dec 4 3:00 am, Amsterdam Island, Weather by CustomWeather, © 2016

Note: Actual official high and low records may vary slightly from our data, if they occured in-between our weather recording intervals... More about our weather records

Advertising

Amsterdam Island Weather History for the Previous 24 Hours

Scroll right to see more
 ConditionsComfort  
Time TempWeatherWind HumidityBarometerVisibility
3:00 am
Sun, Dec 4
42 °FQuite cool.9 mph90%29.23 "HgN/A
2:00 am43 °FQuite cool.10 mph84%29.29 "HgN/A
1:00 am42 °FQuite cool.7 mph81%29.35 "HgN/A
12:00 am43 °FQuite cool.9 mph84%29.41 "HgN/A
11:00 pm
Sat, Dec 3
43 °FQuite cool.9 mph82%29.47 "HgN/A
10:00 pm42 °FQuite cool.16 mph83%29.50 "HgN/A
9:00 pm42 °FQuite cool.20 mph76%29.54 "HgN/A
8:00 pm44 °FQuite cool.13 mph72%29.57 "HgN/A
7:00 pm45 °FQuite cool.21 mph67%29.60 "HgN/A
6:00 pm47 °FCool.23 mph59%29.62 "HgN/A
5:00 pm48 °FCool.16 mph51%29.63 "HgN/A
4:00 pm48 °FCool.26 mph49%29.67 "HgN/A
3:00 pm49 °FCool.24 mph51%29.66 "HgN/A
2:00 pm50 °FCool.25 mph58%29.69 "HgN/A
1:00 pm48 °FCool.23 mph60%29.70 "HgN/A
12:00 pm47 °FCool.21 mph54%29.72 "HgN/A
11:00 am49 °FCool.26 mph51%29.72 "HgN/A
10:00 am44 °FQuite cool.25 mph58%29.75 "HgN/A
9:00 am43 °FQuite cool.17 mph54%29.78 "HgN/A
8:00 am43 °FQuite cool.15 mph54%29.78 "HgN/A
6:00 am40 °FQuite cool.15 mph68%29.80 "HgN/A
5:00 am39 °FChilly.14 mph65%29.80 "HgN/A
Weather by CustomWeather, © 2016

See weather overviewHow to use our weather pages